Regional Weather Roundup
Issued by NWS

Home | Current Version | Previous Version | Graphics & Text | Print | Product List | Glossary On
Versions: 1 2 3 4 5 6 7 8 9 10 11 12 13 14 15 16 17 18 19 20 21 22 23 24 25 26 27 28 29 30 31 32 33 34 35 36 37 38 39 40 41 42 43 44 45 46 47 48 49 50
000
ASUS43 KBIS 210502
RWRND

NORTH DAKOTA REGIONAL WEATHER ROUNDUP
NATIONAL WEATHER SERVICE BISMARCK ND
1100 PM CST TUE FEB 20 2018

NOTE: "FAIR" INDICATES FEW OR NO CLOUDS BELOW 12,000 FEET WITH NO
SIGNIFICANT WEATHER AND/OR OBSTRUCTIONS TO VISIBILITY.


NDZ001>003-009>011-017-210600-
NORTHWEST NORTH DAKOTA

CITY           SKY/WX    TMP DP  RH WIND       PRES   REMARKS
WILLISTON      MOCLDY    -4 -12  68 S8        30.23R WCI -19
MINOT          CLEAR      3  -7  63 SW22G30   30.17R WCI -19
MINOT AFB      CLEAR      0  -8  67 W16       30.16R WCI -20
$$

NDZ018>021-031>035-040>046-210600-
SOUTHWEST NORTH DAKOTA

CITY           SKY/WX    TMP DP  RH WIND       PRES   REMARKS
BISMARCK       CLEAR     -2  -9  72 W7        30.28R WCI -15
DICKINSON      CLEAR     -6 -15  65 W12       30.18R WCI -25
GARRISON         N/A     -5 -11  75 W10       30.20R WCI -23
HETTINGER ARPT CLEAR    -10 -16  74 W12       30.23R WCI -30
$$

NDZ004>008-012>016-024-026-027-054-210600-
NORTHEAST NORTH DAKOTA

CITY           SKY/WX    TMP DP  RH WIND       PRES   REMARKS
GRAND FORKS    MOCLDY     4  -3  73 SW10      30.23S WCI -11
DEVILS LAKE    FAIR      -2  -8  76 W13       30.19R WCI -20
$$

NDZ022-023-025-028>030-036>039-047>053-210600-
SOUTHEAST NORTH DAKOTA

CITY           SKY/WX    TMP DP  RH WIND       PRES   REMARKS
FARGO          FAIR       2  -4  76 SW12      30.29R WCI -15
JAMESTOWN      CLEAR      2  -5  72 W13       30.24R WCI -15
$$





USA.gov is the U.S. government's official web portal to all federal, state and local government web resources and services.